Tracking 19193 objects as of 24-Jun-2018
HD Live streaming from Space Station
objects crossing your sky now

FENGYUN 1C DEB

Track FENGYUN 1C DEB now!
10-day predictions


NORAD ID: 35196
Int'l Code: 1999-025DPC
Perigee: 691.0 km
Apogee: 1,030.0 km
Inclination: 98.8 °
Period: 102.0 minutes
Semi major axis: 7231 km
RCS: 0.0097 m2 (small)
Launch date: May 10, 1999
Source: People's Republic of China (PRC)
Launch site: Taiyaun Space Center, China (TSC)

Note: This is SATELLITE DEBRIS
aabbcc
Your satellite tracking list
Your tracking list is empty




NASA's NSSDC Master Catalog

Two Line Element Set (TLE):
1 35196U 99025DPC 18174.37309090 +.00000454 +00000-0 +21195-3 0  9995
2 35196 098.8206 231.9954 0234398 219.8121 200.2048 14.11770801505652
Source of the keplerian elements: AFSPC